| time (UTC) | temp C | wind direction | speed KPH | gust KPH | rain 1hr cm | rain 24hr cm | rain mn cm | humidity % | barometer mb |
| 20260509012841 | 17 | 171 | 1.6 | 8.0 | 0.00 | 0.00 | 0.00 | 54 | 1007.7 |
| 20260509011837 | 17 | 163 | 0.0 | 3.2 | 0.00 | 0.00 | 0.00 | 54 | 1007.7 |
| 20260509010829 | 17 | 165 | 1.6 | 3.2 | 0.00 | 0.00 | 0.00 | 53 | 1007.7 |
| 20260509005834 | 17 | 165 | 1.6 | 8.0 | 0.00 | 0.00 | 0.00 | 52 | 1007.8 |
| 20260509004858 | 17 | 203 | 3.2 | 9.7 | 0.00 | 0.00 | 0.00 | 51 | 1007.6 |
| 20260509003828 | 17 | 190 | 1.6 | 9.7 | 0.00 | 0.00 | 0.00 | 52 | 1007.5 |
| 20260509002821 | 17 | 168 | 1.6 | 8.0 | 0.00 | 0.00 | 0.00 | 52 | 1007.5 |
| 20260509001840 | 18 | 181 | 4.8 | 11.3 | 0.00 | 0.00 | 0.00 | 51 | 1007.4 |
| 20260509000831 | 18 | 184 | 1.6 | 12.9 | 0.00 | 0.00 | 0.00 | 51 | 1007.5 |
| 20260508235835 | 18 | 184 | 3.2 | 14.5 | 0.00 | 0.00 | 0.00 | 52 | 1007.6 |
| 20260508234858 | 18 | 187 | 4.8 | 14.5 | 0.00 | 0.00 | 0.00 | 51 | 1007.6 |
| 20260508233827 | 18 | 177 | 4.8 | 8.0 | 0.00 | 0.00 | 0.00 | 51 | 1007.6 |
| 20260508232820 | 18 | 186 | 3.2 | 11.3 | 0.00 | 0.00 | 0.00 | 50 | 1007.6 |
| 20260508231817 | 18 | 146 | 4.8 | 12.9 | 0.00 | 0.00 | 0.00 | 50 | 1007.6 |
| 20260508230834 | 18 | 173 | 4.8 | 11.3 | 0.00 | 0.00 | 0.00 | 50 | 1007.5 |
| 20260508225840 | 18 | 186 | 4.8 | 12.9 | 0.00 | 0.00 | 0.00 | 50 | 1007.6 |
| 20260508224822 | 18 | 182 | 4.8 | 11.3 | 0.00 | 0.00 | 0.00 | 49 | 1007.5 |
| 20260508223841 | 18 | 185 | 3.2 | 22.5 | 0.00 | 0.00 | 0.00 | 49 | 1007.4 |
| 20260508222832 | 19 | 156 | 4.8 | 11.3 | 0.00 | 0.00 | 0.00 | 49 | 1007.3 |
| 20260508221853 | 19 | 157 | 6.4 | 12.9 | 0.00 | 0.00 | 0.00 | 48 | 1007.4 |
| 20260508220823 | 19 | 158 | 4.8 | 12.9 | 0.00 | 0.00 | 0.00 | 48 | 1007.2 |
| 20260508215825 | 19 | 191 | 8.0 | 16.1 | 0.00 | 0.00 | 0.00 | 47 | 1007.2 |
| 20260508214849 | 19 | 183 | 8.0 | 22.5 | 0.00 | 0.00 | 0.00 | 47 | 1007.4 |
| 20260508213818 | 20 | 148 | 4.8 | 16.1 | 0.00 | 0.00 | 0.00 | 47 | 1007.4 |
| 20260508212839 | 20 | 165 | 8.0 | 16.1 | 0.00 | 0.00 | 0.00 | 45 | 1007.5 |
| 20260508211831 | 20 | 215 | 4.8 | 17.7 | 0.00 | 0.00 | 0.00 | 48 | 1007.6 |
| 20260508210822 | 20 | 180 | 8.0 | 22.5 | 0.00 | 0.00 | 0.00 | 47 | 1007.7 |
| 20260508205826 | 20 | 127 | 8.0 | 20.9 | 0.00 | 0.00 | 0.00 | 47 | 1007.9 |
| 20260508204849 | 20 | 157 | 11.3 | 16.1 | 0.00 | 0.00 | 0.00 | 45 | 1007.8 |
| 20260508203819 | 20 | 184 | 4.8 | 17.7 | 0.00 | 0.00 | 0.00 | 46 | 1008.1 |
| 20260508202835 | 20 | 190 | 14.5 | 25.7 | 0.00 | 0.00 | 0.00 | 44 | 1008.4 |
| 20260508201826 | 20 | 204 | 6.4 | 16.1 | 0.00 | 0.00 | 0.00 | 48 | 1008.4 |
| 20260508200817 | 19 | 169 | 4.8 | 16.1 | 0.00 | 0.00 | 0.00 | 46 | 1008.6 |
| 20260508195819 | 19 | 190 | 8.0 | 24.1 | 0.00 | 0.00 | 0.00 | 44 | 1008.7 |
| 20260508194822 | 20 | 180 | 9.7 | 16.1 | 0.00 | 0.00 | 0.00 | 43 | 1008.8 |
| 20260508193841 | 20 | 153 | 4.8 | 16.1 | 0.00 | 0.00 | 0.00 | 44 | 1008.7 |
| 20260508192832 | 20 | 173 | 9.7 | 17.7 | 0.00 | 0.00 | 0.00 | 45 | 1008.8 |
| 20260508191825 | 20 | 151 | 6.4 | 16.1 | 0.00 | 0.00 | 0.00 | 46 | 1009.0 |
| 20260508190815 | 20 | 188 | 6.4 | 16.1 | 0.00 | 0.00 | 0.00 | 43 | 1009.0 |
| 20260508185835 | 20 | 184 | 11.3 | 20.9 | 0.00 | 0.00 | 0.00 | 42 | 1009.2 |
| 20260508184839 | 20 | 178 | 8.0 | 22.5 | 0.00 | 0.00 | 0.00 | 44 | 1009.5 |
| 20260508183831 | 20 | 217 | 6.4 | 27.4 | 0.00 | 0.00 | 0.00 | 45 | 1009.6 |
| 20260508182823 | 20 | 153 | 8.0 | 17.7 | 0.00 | 0.00 | 0.00 | 44 | 1009.7 |
| 20260508181842 | 20 | 180 | 6.4 | 17.7 | 0.00 | 0.00 | 0.00 | 47 | 1009.9 |
| 20260508180831 | 19 | 184 | 6.4 | 24.1 | 0.00 | 0.00 | 0.00 | 46 | 1010.1 |
| 20260508175816 | 19 | 162 | 3.2 | 16.1 | 0.00 | 0.00 | 0.00 | 45 | 1010.1 |
| 20260508174820 | 19 | 130 | 3.2 | 16.1 | 0.00 | 0.00 | 0.00 | 45 | 1010.3 |
| 20260508173816 | 19 | 185 | 8.0 | 17.7 | 0.00 | 0.00 | 0.00 | 45 | 1010.4 |
| 20260508172834 | 19 | 192 | 8.0 | 20.9 | 0.00 | 0.00 | 0.00 | 45 | 1010.5 |
| 20260508171827 | 19 | 265 | 6.4 | 17.7 | 0.00 | 0.00 | 0.00 | 45 | 1010.9 |
| 20260508170843 | 18 | 175 | 4.8 | 24.1 | 0.00 | 0.00 | 0.00 | 50 | 1011.0 |
| 20260508165826 | 18 | 280 | 6.4 | 14.5 | 0.00 | 0.00 | 0.00 | 47 | 1011.3 |
| 20260508164828 | 18 | 189 | 8.0 | 25.7 | 0.00 | 0.00 | 0.00 | 50 | 1011.6 |
| 20260508163819 | 18 | 153 | 6.4 | 16.1 | 0.00 | 0.00 | 0.00 | 50 | 1011.7 |
| 20260508162839 | 18 | 177 | 6.4 | 24.1 | 0.00 | 0.00 | 0.00 | 52 | 1011.9 |
| 20260508161829 | 17 | 290 | 6.4 | 19.3 | 0.00 | 0.00 | 0.00 | 52 | 1012.1 |
| 20260508160820 | 17 | 211 | 6.4 | 16.1 | 0.00 | 0.00 | 0.00 | 53 | 1012.2 |
| 20260508155823 | 17 | 167 | 8.0 | 17.7 | 0.00 | 0.00 | 0.00 | 52 | 1012.2 |
| 20260508154825 | 17 | 286 | 4.8 | 19.3 | 0.00 | 0.00 | 0.00 | 53 | 1012.4 |
| 20260508153817 | 16 | 182 | 3.2 | 14.5 | 0.00 | 0.00 | 0.00 | 56 | 1012.5 |
| 20260508152835 | 16 | 187 | 8.0 | 17.7 | 0.00 | 0.00 | 0.00 | 54 | 1012.6 |
| 20260508151825 | 16 | 188 | 6.4 | 17.7 | 0.00 | 0.00 | 0.00 | 55 | 1012.8 |
| 20260508150817 | 16 | 144 | 3.2 | 12.9 | 0.00 | 0.00 | 0.00 | 56 | 1012.9 |
| 20260508145822 | 15 | 189 | 6.4 | 17.7 | 0.00 | 0.00 | 0.00 | 57 | 1012.9 |
| 20260508144841 | 15 | 176 | 3.2 | 16.1 | 0.00 | 0.00 | 0.00 | 60 | 1012.9 |
| 20260508143839 | 14 | 168 | 9.7 | 16.1 | 0.00 | 0.00 | 0.00 | 59 | 1013.0 |
| 20260508142829 | 13 | 183 | 8.0 | 19.3 | 0.00 | 0.00 | 0.00 | 60 | 1012.9 |
| 20260508141848 | 13 | 215 | 4.8 | 17.7 | 0.00 | 0.00 | 0.00 | 62 | 1013.0 |
| 20260508140819 | 13 | 177 | 4.8 | 12.9 | 0.00 | 0.00 | 0.00 | 63 | 1013.0 |
| 20260508135820 | 12 | 173 | 4.8 | 11.3 | 0.00 | 0.00 | 0.00 | 65 | 1013.1 |
| 20260508134826 | 12 | 161 | 6.4 | 16.1 | 0.00 | 0.00 | 0.00 | 66 | 1013.2 |
| 20260508133816 | 11 | 144 | 6.4 | 14.5 | 0.00 | 0.00 | 0.00 | 67 | 1013.2 |
| 20260508132834 | 11 | 178 | 4.8 | 12.9 | 0.00 | 0.00 | 0.00 | 67 | 1013.2 |
| 20260508131852 | 10 | 177 | 6.4 | 16.1 | 0.00 | 0.00 | 0.00 | 67 | 1013.2 |
| 20260508130821 | 10 | 193 | 8.0 | 14.5 | 0.00 | 0.00 | 0.00 | 68 | 1013.1 |
| 20260508125824 | 10 | 173 | 3.2 | 16.1 | 0.00 | 0.00 | 0.00 | 69 | 1013.1 |
| 20260508124846 | 9 | 178 | 4.8 | 19.3 | 0.00 | 0.00 | 0.00 | 69 | 1013.1 |
| 20260508123818 | 9 | 169 | 4.8 | 14.5 | 0.00 | 0.00 | 0.00 | 70 | 1013.1 |
| 20260508122835 | 8 | 154 | 4.8 | 9.7 | 0.00 | 0.00 | 0.00 | 71 | 1013.0 |
| 20260508121827 | 8 | 154 | 4.8 | 16.1 | 0.00 | 0.00 | 0.00 | 72 | 1012.9 |
| 20260508120816 | 7 | 182 | 4.8 | 12.9 | 0.00 | 0.00 | 0.00 | 73 | 1012.8 |
| 20260508115820 | 7 | 180 | 1.6 | 8.0 | 0.00 | 0.00 | 0.00 | 74 | 1012.9 |
| 20260508114825 | 7 | 174 | 3.2 | 11.3 | 0.00 | 0.00 | 0.00 | 74 | 1012.8 |
| 20260508113818 | 6 | 178 | 4.8 | 11.3 | 0.00 | 0.00 | 0.00 | 75 | 1012.8 |
| 20260508112840 | 6 | 168 | 4.8 | 11.3 | 0.00 | 0.00 | 0.00 | 76 | 1012.7 |
| 20260508111852 | 6 | 180 | 3.2 | 8.0 | 0.00 | 0.00 | 0.00 | 77 | 1012.6 |
| 20260508110825 | 6 | 184 | 1.6 | 11.3 | 0.00 | 0.00 | 0.00 | 77 | 1012.5 |
| 20260508105829 | 6 | 173 | 1.6 | 8.0 | 0.00 | 0.00 | 0.00 | 76 | 1012.5 |
| 20260508104848 | 6 | 165 | 1.6 | 4.8 | 0.00 | 0.00 | 0.00 | 76 | 1012.4 |
| 20260508103824 | 6 | 165 | 0.0 | 4.8 | 0.00 | 0.00 | 0.00 | 76 | 1012.3 |
| 20260508102839 | 6 | 159 | 1.6 | 6.4 | 0.00 | 0.00 | 0.00 | 77 | 1012.4 |
| 20260508101831 | 6 | 198 | 0.0 | 4.8 | 0.00 | 0.00 | 0.00 | 77 | 1012.4 |
| 20260508100820 | 6 | 199 | 1.6 | 8.0 | 0.00 | 0.00 | 0.00 | 78 | 1012.4 |
| 20260508095844 | 6 | 172 | 0.0 | 3.2 | 0.00 | 0.00 | 0.00 | 78 | 1012.4 |
| 20260508094825 | 5 | 172 | 0.0 | 3.2 | 0.00 | 0.00 | 0.00 | 79 | 1012.4 |
| 20260508093843 | 5 | 172 | 0.0 | 1.6 | 0.00 | 0.00 | 0.00 | 79 | 1012.4 |
| 20260508092839 | 5 | 172 | 0.0 | 1.6 | 0.00 | 0.00 | 0.00 | 79 | 1012.4 |
| 20260508091830 | 6 | 172 | 0.0 | 1.6 | 0.00 | 0.00 | 0.00 | 78 | 1012.3 |
| 20260508090821 | 5 | 172 | 1.6 | 6.4 | 0.00 | 0.00 | 0.00 | 79 | 1012.2 |
| 20260508085826 | 5 | 172 | 0.0 | 1.6 | 0.00 | 0.00 | 0.00 | 79 | 1012.3 |
| 20260508084828 | 5 | 172 | 0.0 | 1.6 | 0.00 | 0.00 | 0.00 | 79 | 1012.3 |
| 20260508083846 | 5 | 171 | 0.0 | 1.6 | 0.00 | 0.00 | 0.00 | 80 | 1012.2 |
| 20260508082816 | 5 | 172 | 0.0 | 0.0 | 0.00 | 0.00 | 0.00 | 80 | 1012.3 |
| 20260508081835 | 5 | 172 | 0.0 | 1.6 | 0.00 | 0.00 | 0.00 | 80 | 1012.2 |
| 20260508080826 | 6 | 171 | 0.0 | 1.6 | 0.00 | 0.00 | 0.00 | 79 | 1012.2 |
| 20260508075828 | 6 | 172 | 0.0 | 0.0 | 0.00 | 0.00 | 0.00 | 76 | 1012.1 |
| 20260508074831 | 6 | 172 | 0.0 | 1.6 | 0.00 | 0.00 | 0.00 | 75 | 1012.2 |
| 20260508073823 | 6 | 172 | 0.0 | 3.2 | 0.00 | 0.00 | 0.00 | 75 | 1012.2 |
| 20260508072841 | 6 | 172 | 0.0 | 3.2 | 0.00 | 0.00 | 0.00 | 75 | 1012.0 |
| 20260508071836 | 6 | 171 | 1.6 | 4.8 | 0.00 | 0.00 | 0.00 | 76 | 1012.2 |
| 20260508070824 | 6 | 171 | 0.0 | 4.8 | 0.00 | 0.00 | 0.00 | 76 | 1012.2 |
| 20260508065828 | 6 | 172 | 0.0 | 3.2 | 0.00 | 0.00 | 0.00 | 76 | 1012.4 |
| 20260508064831 | 6 | 171 | 0.0 | 1.6 | 0.00 | 0.00 | 0.00 | 75 | 1012.7 |
| 20260508063822 | 7 | 171 | 0.0 | 3.2 | 0.00 | 0.00 | 0.00 | 76 | 1012.7 |
| 20260508062840 | 7 | 171 | 0.0 | 1.6 | 0.00 | 0.00 | 0.00 | 75 | 1012.8 |
| 20260508061832 | 7 | 171 | 0.0 | 4.8 | 0.00 | 0.00 | 0.00 | 74 | 1012.9 |
| 20260508060823 | 7 | 190 | 1.6 | 4.8 | 0.00 | 0.00 | 0.00 | 73 | 1013.0 |
| 20260508055852 | 7 | 182 | 0.0 | 1.6 | 0.00 | 0.00 | 0.00 | 74 | 1013.0 |
| 20260508054833 | 7 | 182 | 0.0 | 3.2 | 0.00 | 0.00 | 0.00 | 73 | 1013.0 |
| 20260508053824 | 7 | 182 | 0.0 | 1.6 | 0.00 | 0.00 | 0.00 | 73 | 1013.0 |
| 20260508052815 | 7 | 182 | 0.0 | 6.4 | 0.00 | 0.00 | 0.00 | 72 | 1012.9 |
| 20260508051834 | 7 | 183 | 1.6 | 4.8 | 0.00 | 0.00 | 0.00 | 72 | 1012.9 |
| 20260508050825 | 7 | 184 | 0.0 | 1.6 | 0.00 | 0.00 | 0.00 | 72 | 1012.8 |
| 20260508045827 | 7 | 183 | 0.0 | 1.6 | 0.00 | 0.00 | 0.00 | 74 | 1012.7 |
| 20260508044828 | 7 | 183 | 0.0 | 1.6 | 0.00 | 0.00 | 0.00 | 71 | 1012.9 |
| 20260508043824 | 8 | 184 | 0.0 | 1.6 | 0.00 | 0.00 | 0.00 | 69 | 1012.9 |
| 20260508042816 | 8 | 184 | 0.0 | 3.2 | 0.00 | 0.00 | 0.00 | 66 | 1012.9 |
| 20260508041832 | 8 | 180 | 0.0 | 4.8 | 0.00 | 0.00 | 0.00 | 65 | 1012.8 |
| 20260508040849 | 8 | 187 | 0.0 | 6.4 | 0.00 | 0.00 | 0.00 | 68 | 1012.7 |
| 20260508035829 | 8 | 187 | 0.0 | 4.8 | 0.00 | 0.00 | 0.00 | 65 | 1012.8 |
| 20260508034833 | 8 | 187 | 1.6 | 8.0 | 0.00 | 0.00 | 0.00 | 66 | 1012.9 |
| 20260508033825 | 8 | 188 | 0.0 | 3.2 | 0.00 | 0.00 | 0.00 | 67 | 1013.0 |
| 20260508032817 | 8 | 188 | 0.0 | 3.2 | 0.00 | 0.00 | 0.00 | 67 | 1012.9 |
| 20260508031837 | 8 | 188 | 1.6 | 3.2 | 0.00 | 0.00 | 0.00 | 67 | 1012.9 |
| 20260508030827 | 8 | 221 | 0.0 | 3.2 | 0.00 | 0.00 | 0.00 | 70 | 1012.8 |
| 20260508025852 | 8 | 305 | 0.0 | 1.6 | 0.00 | 0.00 | 0.00 | 70 | 1012.9 |
| 20260508024835 | 8 | 313 | 0.0 | 1.6 | 0.00 | 0.00 | 0.00 | 71 | 1012.8 |
| 20260508023826 | 8 | 313 | 0.0 | 3.2 | 0.00 | 0.00 | 0.00 | 71 | 1012.8 |
| 20260508022819 | 8 | 313 | 0.0 | 0.0 | 0.00 | 0.00 | 0.00 | 69 | 1012.6 |
| 20260508021840 | 8 | 313 | 1.6 | 1.6 | 0.00 | 0.00 | 0.00 | 72 | 1012.7 |
| 20260508020831 | 8 | 313 | 0.0 | 3.2 | 0.00 | 0.00 | 0.00 | 73 | 1012.7 |
| 20260508015834 | 8 | 313 | 0.0 | 0.0 | 0.00 | 0.00 | 0.00 | 71 | 1012.7 |
| 20260508014836 | 8 | 313 | 0.0 | 1.6 | 0.00 | 0.00 | 0.00 | 68 | 1012.6 |
| 20260508013830 | 8 | 313 | 0.0 | 0.0 | 0.00 | 0.00 | 0.00 | 69 | 1012.6 |